Weather History for Ft. Stewart, GA

Change the Weather History Date:

Tuesday, February 26, 2013

  Actual Average Record
Temperature  
Mean Temperature 61 °F -  
Max Temperature 75 °F 67 °F 85 °F (1985)
Min Temperature 47 °F 41 °F 18 °F (1967)
Degree Days  
Heating Degree Days 4    
Growing Degree Days 11 (Base 50)    
Moisture  
Dew Point 58 °F    
Average Humidity 91    
Maximum Humidity 100    
Minimum Humidity 38    
Precipitation  
Precipitation 1.23 in - - ()
Sea Level Pressure  
Sea Level Pressure 29.69 in    
Wind  
Wind Speed 7 mph (SE)    
Max Wind Speed 17 mph    
Max Gust Speed 28 mph    
Visibility 6 miles    
Events Rain    
Averages and records for this station are not official NWS values.
T = Trace of Precipitation, MM = Missing Value Source: NWS Daily Summary

Daily Weather History Graph

Daily Weather History Graph

Search for Another Location

Airport:

Trip Planner

Search our weather history database for the weather conditions in past years. The results will help you decide how hot, cold, wet, or windy it might be!

Date:

Astronomy

Feb. 26, 2013 Rise Set
Actual Time 6:56 AM EST 6:21 PM EST
Civil Twilight 6:32 AM EST 6:46 PM EST
Nautical Twilight 6:03 AM EST 7:14 PM EST
Astronomical Twilight 5:35 AM EST 7:43 PM EST
Moon 7:29 PM EST (2/26) 7:04 AM EST (2/26)
Length of Visible Light 12h 14m
Length of Day
11h 25m
Full, 99% of the Moon is Illuminated
Feb 26
Full
Mar 4
Last Quarter
Mar 11
New
Mar 19
First Quarter
Mar 27
Full

Hourly Weather History & Observations

Time (EST) Temp. Dew Point Humidity Pressure Visibility Wind Dir Wind Speed Gust Speed Precip Events Conditions
12:33 AM 48.2 °F 48.2 °F 100% 29.87 in 5.0 mi NE 9.2 mph - N/A Rain Rain
12:58 AM 47.3 °F 47.3 °F 100% 29.87 in 7.0 mi NE 8.1 mph - 0.04 in Rain Light Rain
1:58 AM 48.2 °F 48.2 °F 100% 29.83 in 7.0 mi NE 8.1 mph - 0.05 in Rain Light Rain
2:23 AM 48.2 °F 48.2 °F 100% 29.83 in 10.0 mi WNW 6.9 mph - N/A Rain Light Rain
2:58 AM 49.5 °F 49.5 °F 100% 29.80 in 10.0 mi NE 5.8 mph - 0.02 in Rain Light Rain
3:18 AM 50.0 °F 50.0 °F 100% 29.77 in 9.0 mi NE 4.6 mph - N/A Rain Light Rain
3:19 AM 50.0 °F 50.0 °F 100% 29.77 in 9.0 mi NE 4.6 mph - N/A   Overcast
3:58 AM 51.6 °F 51.6 °F 100% 29.75 in 5.0 mi ENE 5.8 mph - 0.00 in   Overcast
4:33 AM 53.6 °F 53.6 °F 100% 29.72 in 2.5 mi East 5.8 mph - N/A   Overcast
4:53 AM 53.6 °F 53.6 °F 100% 29.72 in 1.8 mi East 4.6 mph - N/A   Overcast
4:58 AM 54.1 °F 54.1 °F 100% 29.73 in 1.8 mi East 4.6 mph - N/A   Overcast
5:07 AM 53.6 °F 53.6 °F 100% 29.72 in 1.5 mi ESE 3.5 mph - N/A Rain Light Rain
5:17 AM 55.4 °F 55.4 °F 100% 29.73 in 1.0 mi SSW 5.8 mph - N/A Rain Heavy Rain
5:22 AM 55.4 °F 55.4 °F 100% 29.71 in 1.5 mi ESE 5.8 mph - N/A Rain Heavy Rain
5:27 AM 55.4 °F 55.4 °F 100% 29.70 in 3.0 mi East 5.8 mph - N/A Rain Light Rain
5:32 AM 55.4 °F 55.4 °F 100% 29.70 in 6.0 mi ESE 3.5 mph - N/A Rain Light Rain
5:37 AM 55.4 °F 55.4 °F 100% 29.70 in 5.0 mi East 3.5 mph - N/A Rain Light Rain
5:42 AM 55.4 °F 55.4 °F 100% 29.70 in 6.0 mi ENE 3.5 mph - N/A Rain Rain
5:47 AM 57.2 °F 57.2 °F 100% 29.70 in 5.0 mi NE 3.5 mph - N/A Rain Rain
5:52 AM 57.2 °F 57.2 °F 100% 29.70 in 2.0 mi North 3.5 mph - N/A Rain Heavy Rain
5:58 AM 57.2 °F 57.2 °F 100% 29.70 in 1.5 mi NE 3.5 mph - 0.31 in Rain Heavy Rain
6:03 AM 57.2 °F 57.2 °F 100% 29.70 in 2.5 mi North 1.2 mph - N/A Rain Heavy Rain
6:08 AM 57.2 °F 57.2 °F 100% 29.70 in 3.0 mi NE 2.3 mph - N/A Rain Rain
6:23 AM 57.2 °F 57.2 °F 100% 29.71 in 2.5 mi WNW 2.3 mph - N/A Rain Heavy Rain
6:38 AM 57.2 °F 57.2 °F 100% 29.69 in 3.0 mi NNE 5.8 mph - N/A Rain Heavy Rain
6:58 AM 57.9 °F 57.9 °F 100% 29.69 in 2.0 mi NNE 2.3 mph - 0.32 in Rain Heavy Rain
7:03 AM 57.2 °F 57.2 °F 100% 29.68 in 1.8 mi Calm Calm - N/A Rain Heavy Rain
7:08 AM 59.0 °F 59.0 °F 100% 29.68 in 2.5 mi Calm Calm - N/A Rain Heavy Rain
7:18 AM 59.0 °F 59.0 °F 100% 29.68 in 1.2 mi NNE 2.3 mph - N/A Rain Heavy Rain
7:23 AM 59.0 °F 59.0 °F 100% 29.68 in 1.8 mi NE 2.3 mph - N/A Rain Rain
7:28 AM 59.0 °F 59.0 °F 100% 29.69 in 3.0 mi Calm Calm - N/A Rain Rain
7:33 AM 59.0 °F 59.0 °F 100% 29.69 in 1.8 mi Variable 1.2 mph - N/A Rain Heavy Rain
7:38 AM 59.0 °F 59.0 °F 100% 29.69 in 2.0 mi North 1.2 mph - N/A Rain Heavy Rain
7:43 AM 59.0 °F 59.0 °F 100% 29.69 in 2.5 mi Calm Calm - N/A Rain Heavy Rain
7:48 AM 59.0 °F 59.0 °F 100% 29.69 in 2.0 mi Calm Calm - N/A Rain Heavy Rain
7:53 AM 59.0 °F 59.0 °F 100% 29.70 in 2.0 mi Calm Calm - N/A Rain Heavy Rain
7:58 AM 59.9 °F 59.9 °F 100% 29.69 in 2.5 mi East 3.5 mph - 0.23 in Rain Heavy Rain
8:03 AM 60.8 °F 60.8 °F 100% 29.68 in 4.0 mi ENE 3.5 mph - N/A Rain Light Rain
8:25 AM 60.8 °F 60.8 °F 100% 29.68 in 5.0 mi ESE 4.6 mph - N/A   Mostly Cloudy
8:32 AM 60.8 °F 60.8 °F 100% 29.68 in 5.0 mi ESE 5.8 mph - N/A Rain Light Rain
8:52 AM 64.4 °F 64.4 °F 100% 29.68 in 3.0 mi SE 3.5 mph - N/A Rain Heavy Rain
8:58 AM 64.4 °F 64.4 °F 100% 29.69 in 3.0 mi SSE 5.8 mph - N/A Rain Rain
9:13 AM 66.2 °F 66.2 °F 100% 29.67 in 1.5 mi SE 9.2 mph - N/A Rain Heavy Rain
9:18 AM 66.2 °F 66.2 °F 100% 29.68 in 1.0 mi Variable 6.9 mph - N/A Rain Heavy Rain
9:22 AM 66.2 °F 66.2 °F 100% 29.67 in 7.0 mi SSE 8.1 mph - N/A Rain Light Rain
9:23 AM 66.2 °F 66.2 °F 100% 29.68 in 1.5 mi SSE 8.1 mph - N/A Rain Light Rain
9:25 AM 66.2 °F 66.2 °F 100% 29.68 in 3.0 mi SE 8.1 mph - N/A Rain Light Rain
9:30 AM 66.2 °F 66.2 °F 100% 29.67 in 10.0 mi SE 9.2 mph - N/A Rain Light Rain
9:33 AM 66.2 °F 66.2 °F 100% 29.66 in 10.0 mi SE 8.1 mph - N/A   Overcast
9:48 AM 66.2 °F 66.2 °F 100% 29.65 in 10.0 mi SSE 9.2 mph - N/A   Overcast
9:58 AM 66.9 °F 66.9 °F 100% 29.67 in 10.0 mi South 10.4 mph 19.6 mph 0.26 in   Overcast
10:13 AM 68.0 °F 68.0 °F 100% 29.64 in 10.0 mi South 13.8 mph 20.7 mph N/A   Mostly Cloudy
10:18 AM 68.0 °F 68.0 °F 100% 29.64 in 10.0 mi South 13.8 mph 20.7 mph N/A   Mostly Cloudy
10:23 AM 68.0 °F 68.0 °F 100% 29.63 in 10.0 mi South 17.3 mph 27.6 mph N/A   Mostly Cloudy
10:28 AM 69.8 °F 68.0 °F 94% 29.63 in 10.0 mi South 12.7 mph 27.6 mph N/A   Mostly Cloudy
10:33 AM 69.8 °F 68.0 °F 94% 29.63 in 10.0 mi South 13.8 mph 24.2 mph N/A   Mostly Cloudy
10:38 AM 69.8 °F 68.0 °F 94% 29.64 in 10.0 mi South 10.4 mph 24.2 mph N/A   Mostly Cloudy
10:58 AM 71.4 °F 66.6 °F 85% 29.65 in 10.0 mi South 16.1 mph 25.3 mph N/A   Mostly Cloudy
11:38 AM 73.4 °F 66.2 °F 78% 29.63 in 10.0 mi South 12.7 mph 19.6 mph N/A   Mostly Cloudy
11:58 AM 74.1 °F 66.4 °F 77% 29.63 in 10.0 mi South 17.3 mph 21.9 mph N/A   Mostly Cloudy
12:58 PM 74.5 °F 63.7 °F 69% 29.62 in 10.0 mi SSW 11.5 mph 25.3 mph N/A   Scattered Clouds
1:58 PM 73.8 °F 55.9 °F 54% 29.62 in 10.0 mi SW 13.8 mph 26.5 mph N/A   Partly Cloudy
2:58 PM 74.1 °F 55.0 °F 51% 29.62 in 10.0 mi SW 16.1 mph 21.9 mph N/A   Partly Cloudy
3:58 PM 75.2 °F 48.2 °F 38% 29.62 in 10.0 mi SSW 13.8 mph 21.9 mph N/A   Clear
4:58 PM 74.7 °F 47.1 °F 38% 29.60 in 10.0 mi SSW 12.7 mph 21.9 mph N/A   Clear
5:58 PM 71.6 °F 46.4 °F 41% 29.62 in 10.0 mi SSW 10.4 mph - N/A   Clear
6:58 PM 69.3 °F 47.8 °F 46% 29.66 in 10.0 mi SW 11.5 mph 19.6 mph N/A   Clear
7:58 PM 67.1 °F 48.7 °F 52% 29.68 in 10.0 mi SSW 10.4 mph - N/A   Partly Cloudy
8:58 PM 64.6 °F 49.8 °F 59% 29.71 in 10.0 mi SSW 15.0 mph 20.7 mph N/A   Clear
9:58 PM 62.6 °F 50.4 °F 64% 29.74 in 10.0 mi SW 11.5 mph - N/A   Clear
10:58 PM 61.0 °F 50.9 °F 69% 29.77 in 10.0 mi SW 12.7 mph 19.6 mph N/A   Scattered Clouds
11:58 PM 59.0 °F 51.4 °F 76% 29.78 in 10.0 mi WSW 12.7 mph - N/A   Partly Cloudy